Regional Weather Roundup
Issued by NWS Newport/Morehead, NC

Current Version | Previous Version | Graphics & Text | Print | Product List | Glossary On
Versions: 1 2 3 4 5 6 7 8 9 10 11 12 13 14 15 16 17 18 19 20 21 22 23 24 25 26 27 28 29 30 31 32 33 34 35 36 37 38 39 40 41 42 43 44 45 46 47 48 49 50
000 ASUS42 KMHX 300025 RWRMHX WEATHER ROUNDUP FOR EASTERN NORTH CAROLINA NATIONAL WEATHER SERVICE NEWPORT/MOREHEAD CITY NC 800 PM EDT SAT AUG 29 2015 NOTE: "FAIR" INDICATES FEW OR NO CLOUDS BELOW 12,000 FEET WITH NO SIGNIFICANT WEATHER AND/OR OBSTRUCTIONS TO VISIBILITY NCZ015>017-031-032-045>047-102-103-300100- NORTH COAST CITY SKY/WX TMP DP RH WIND PRES REMARKS EDENTON MOCLDY 72 64 75 CALM 30.12F ELIZABETH CITY CLOUDY 75 65 70 NE7 30.13S KITTY HAWK CLOUDY 76 65 68 NE6 30.10F MANTEO CLOUDY 76 67 73 NE9 30.12S $$ NCZ045>047-081-094-103-104-300100- CENTRAL COAST CITY SKY/WX TMP DP RH WIND PRES REMARKS FRISCO PTCLDY 76 71 85 NE8 30.09S SWANQUARTER NOT AVBL $$ NCZ095-097-098-100-101-300100- SOUTHERN COAST CITY SKY/WX TMP DP RH WIND PRES REMARKS BEAUFORT PTCLDY 75 67 76 N5 30.10S CEDAR ISLAND NOT AVBL JACKSONVILLE PTCLDY 78 62 57 NE6 30.10S PINEY ISLAND PTCLDY N/A N/A N/A N8 30.10F WILMINGTON PTCLDY 77 68 73 N3 30.10S $$ NCZ011>013-027>030-043-044-078>080-089-090>093-098-300100- COASTAL PLAIN CITY SKY/WX TMP DP RH WIND PRES REMARKS AHOSKIE PTCLDY 73 63 70 CALM 30.13S CLINTON PTCLDY 74 66 78 CALM 30.12S ELIZABETHTOWN MOCLDY 75 63 65 CALM 30.12R GOLDSBORO MOCLDY 78 64 62 E2 30.11R GREENVILLE MOCLDY 77 64 65 CALM 30.14R HAVELOCK PTCLDY 77 61 57 N9 30.11F KENANSVILLE N/A 72 65 79 CALM 30.13R KINSTON CLEAR 79 61 53 E3 30.12S NEW BERN CLEAR 76 64 66 E5 30.12F RICHLANDS PTCLDY 73 64 73 CALM 30.12R ROCKY MOUNT MOCLDY 77 59 53 CALM 30.12S WASHINGTON PTCLDY 73 64 74 NE3 30.12S WHITEVILLE CLOUDY 76 66 71 CALM 30.11S $$ AMZ130-135-150-152-154-156-158-170-250-252-270-ANZ085-086-088-633-658-670-300100- MARINE OBSERVATIONS STATION/POSITION TIME TEMP WIND PRES WAVE SWELL AIR SEA DIR/SP/G HT/PER HT/PER (UTC) (F) (DEG/KT/KT) (MB) (FT/S) (FT/S) CHESAPEAKE LIGHT 0000 76 80/ 10/ 11 1020.9 64 E VA BEACH 2350 78 78 60/ 14/ 17 1019.3 4/11 3/11 DUCK NOT AVBL 2 E DUCK 2311 78 N/A 4/11 2/11 OREGON INLET NOT AVBL 13E OREGON INLT 0000 78 N/A 5/12 2/12 HATTERAS CG NOT AVBL DIAMOND BUOY 2350 78 82 30/ 19/ 21 1018.1 5/11 3/11 CAPE LOOKOUT 0000 78 20/ 9/ 13 1019.0 BEAUFORT LAB NOT AVBL 30 SE NEW RVR IN 2308 80 81 60/ 14/ 19 1019.2 30 SE NEW RVR IN 2325 82 N/A 5/11 3/11 27 SE WRIGHTSVLE 0000 77 82 70/ 10/ 14 N/A 5 SE WRIGHTSVLE NOT AVBL 225 S CAPE HAT 2350 82 84 170/ 4/ 8 1019.7 5/11 5/11 41 SE CHARLESTON 2350 81 85 60/ 14/ 16 1018.4 4/11 2/11 $$

USA.gov is the U.S. government's official web portal to all federal, state and local government web resources and services.